| time (UTC) | temp F | wind direction | speed MPH | gust MPH | rain 1hr in | rain 24hr in | rain mn in | humidity % | barometer mb |
| 20260508231550 | 46 | 60 | 5.0 | 9.0 | 0.00 | 0.00 | 0.00 | 57 | 976.3 |
| 20260508231049 | 46 | 49 | 4.0 | 8.0 | 0.00 | 0.00 | 0.00 | 57 | 976.2 |
| 20260508230520 | 46 | 50 | 4.0 | 8.0 | 0.00 | 0.00 | 0.00 | 57 | 976.2 |
| 20260508225949 | 46 | 49 | 4.0 | 8.0 | 0.00 | 0.00 | 0.00 | 57 | 976.3 |
| 20260508225449 | 46 | 62 | 4.0 | 8.0 | 0.00 | 0.00 | 0.00 | 56 | 976.3 |
| 20260508224949 | 46 | 30 | 4.0 | 8.0 | 0.00 | 0.00 | 0.00 | 56 | 976.3 |
| 20260508224419 | 46 | 39 | 3.0 | 7.0 | 0.00 | 0.00 | 0.00 | 54 | 976.4 |
| 20260508223919 | 47 | 35 | 3.0 | 7.0 | 0.00 | 0.00 | 0.00 | 53 | 976.4 |
| 20260508223349 | 47 | 61 | 1.0 | 4.0 | 0.00 | 0.00 | 0.00 | 52 | 976.4 |
| 20260508222849 | 47 | 158 | 2.0 | 4.0 | 0.00 | 0.00 | 0.00 | 52 | 976.4 |
| 20260508222319 | 47 | 154 | 2.0 | 6.0 | 0.00 | 0.00 | 0.00 | 52 | 976.3 |
| 20260508221819 | 47 | 199 | 3.0 | 10.0 | 0.00 | 0.00 | 0.00 | 51 | 976.3 |
| 20260508221249 | 47 | 207 | 3.0 | 10.0 | 0.00 | 0.00 | 0.00 | 50 | 976.4 |
| 20260508220750 | 47 | 209 | 3.0 | 10.0 | 0.00 | 0.00 | 0.00 | 50 | 976.3 |
| 20260508220249 | 47 | 257 | 3.0 | 8.0 | 0.00 | 0.00 | 0.00 | 51 | 976.3 |
| 20260508215749 | 47 | 225 | 3.0 | 7.0 | 0.00 | 0.00 | 0.00 | 51 | 976.4 |
| 20260508215249 | 47 | 231 | 3.0 | 8.0 | 0.00 | 0.00 | 0.00 | 50 | 976.4 |
| 20260508214749 | 47 | 193 | 3.0 | 8.0 | 0.00 | 0.00 | 0.00 | 50 | 976.4 |
| 20260508214249 | 47 | 226 | 3.0 | 8.0 | 0.00 | 0.00 | 0.00 | 50 | 976.3 |
| 20260508213749 | 47 | 216 | 3.0 | 7.0 | 0.00 | 0.00 | 0.00 | 50 | 976.4 |
| 20260508213249 | 47 | 61 | 3.0 | 9.0 | 0.00 | 0.00 | 0.00 | 49 | 976.5 |
| 20260508212749 | 47 | 68 | 4.0 | 10.0 | 0.00 | 0.00 | 0.00 | 48 | 976.3 |
| 20260508212249 | 48 | 64 | 5.0 | 10.0 | 0.00 | 0.00 | 0.00 | 47 | 976.4 |
| 20260508211749 | 48 | 68 | 4.0 | 10.0 | 0.00 | 0.00 | 0.00 | 47 | 976.4 |
| 20260508211249 | 48 | 60 | 4.0 | 9.0 | 0.00 | 0.00 | 0.00 | 46 | 976.4 |
| 20260508210749 | 48 | 92 | 3.0 | 9.0 | 0.00 | 0.00 | 0.00 | 45 | 976.4 |
| 20260508210219 | 48 | 199 | 3.0 | 7.0 | 0.00 | 0.00 | 0.00 | 45 | 976.3 |
| 20260508205719 | 48 | 59 | 3.0 | 7.0 | 0.00 | 0.00 | 0.00 | 44 | 976.3 |
| 20260508205219 | 49 | 195 | 3.0 | 9.0 | 0.00 | 0.00 | 0.00 | 45 | 976.4 |
| 20260508204719 | 49 | 229 | 3.0 | 9.0 | 0.00 | 0.00 | 0.00 | 45 | 976.3 |
| 20260508204219 | 48 | 200 | 3.0 | 7.0 | 0.00 | 0.00 | 0.00 | 45 | 976.3 |
| 20260508203719 | 48 | 231 | 2.0 | 7.0 | 0.00 | 0.00 | 0.00 | 44 | 976.2 |
| 20260508203219 | 49 | 246 | 2.0 | 6.0 | 0.00 | 0.00 | 0.00 | 43 | 976.2 |
| 20260508202719 | 49 | 335 | 2.0 | 6.0 | 0.00 | 0.00 | 0.00 | 43 | 976.1 |
| 20260508202219 | 49 | 237 | 2.0 | 6.0 | 0.00 | 0.00 | 0.00 | 42 | 976.1 |
| 20260508201719 | 49 | 293 | 2.0 | 6.0 | 0.00 | 0.00 | 0.00 | 41 | 976.1 |
| 20260508201219 | 49 | 257 | 2.0 | 6.0 | 0.00 | 0.00 | 0.00 | 41 | 976.2 |
| 20260508200718 | 49 | 253 | 2.0 | 5.0 | 0.00 | 0.00 | 0.00 | 40 | 976.1 |
| 20260508200148 | 49 | 244 | 2.0 | 5.0 | 0.00 | 0.00 | 0.00 | 40 | 976.2 |
| 20260508195618 | 49 | 226 | 2.0 | 5.0 | 0.00 | 0.00 | 0.00 | 40 | 976.0 |
| 20260508195118 | 50 | 232 | 2.0 | 5.0 | 0.00 | 0.00 | 0.00 | 40 | 976.0 |
| 20260508194618 | 50 | 239 | 3.0 | 7.0 | 0.00 | 0.00 | 0.00 | 39 | 976.0 |
| 20260508194118 | 50 | 155 | 3.0 | 7.0 | 0.00 | 0.00 | 0.00 | 39 | 976.0 |
| 20260508193618 | 50 | 153 | 3.0 | 6.0 | 0.00 | 0.00 | 0.00 | 39 | 976.0 |
| 20260508193118 | 50 | 172 | 3.0 | 6.0 | 0.00 | 0.00 | 0.00 | 39 | 976.0 |
| 20260508192618 | 50 | 234 | 2.0 | 5.0 | 0.00 | 0.00 | 0.00 | 40 | 976.0 |
| 20260508192048 | 51 | 170 | 2.0 | 4.0 | 0.00 | 0.00 | 0.00 | 41 | 976.0 |
| 20260508191548 | 51 | 272 | 2.0 | 4.0 | 0.00 | 0.00 | 0.00 | 40 | 976.0 |
| 20260508191048 | 51 | 210 | 2.0 | 5.0 | 0.00 | 0.00 | 0.00 | 40 | 976.0 |
| 20260508190548 | 52 | 236 | 2.0 | 6.0 | 0.00 | 0.00 | 0.00 | 40 | 975.6 |
| 20260508190048 | 52 | 131 | 3.0 | 7.0 | 0.00 | 0.00 | 0.00 | 39 | 976.0 |
| 20260508185518 | 53 | 136 | 4.0 | 10.0 | 0.00 | 0.00 | 0.00 | 39 | 976.0 |
| 20260508185018 | 53 | 174 | 3.0 | 10.0 | 0.00 | 0.00 | 0.00 | 37 | 976.0 |
| 20260508184518 | 53 | 153 | 2.0 | 5.0 | 0.00 | 0.00 | 0.00 | 38 | 976.0 |
| 20260508184018 | 53 | 241 | 2.0 | 5.0 | 0.00 | 0.00 | 0.00 | 37 | 975.6 |
| 20260508183518 | 53 | 268 | 2.0 | 4.0 | 0.00 | 0.00 | 0.00 | 37 | 976.0 |
| 20260508183018 | 54 | 241 | 2.0 | 5.0 | 0.00 | 0.00 | 0.00 | 37 | 975.5 |
| 20260508182518 | 54 | 227 | 2.0 | 5.0 | 0.00 | 0.00 | 0.00 | 36 | 975.5 |
| 20260508182018 | 54 | 245 | 2.0 | 5.0 | 0.00 | 0.00 | 0.00 | 36 | 975.6 |
| 20260508181518 | 54 | 251 | 2.0 | 5.0 | 0.00 | 0.00 | 0.00 | 36 | 975.6 |
| 20260508181018 | 55 | 220 | 2.0 | 6.0 | 0.00 | 0.00 | 0.00 | 35 | 975.6 |
| 20260508180518 | 56 | 232 | 2.0 | 6.0 | 0.00 | 0.00 | 0.00 | 35 | 975.6 |
| 20260508180018 | 56 | 43 | 2.0 | 6.0 | 0.00 | 0.00 | 0.00 | 32 | 975.6 |
| 20260508175518 | 56 | 166 | 1.0 | 3.0 | 0.00 | 0.00 | 0.00 | 32 | 975.5 |
| 20260508174948 | 57 | 246 | 1.0 | 3.0 | 0.00 | 0.00 | 0.00 | 33 | 975.5 |
| 20260508174448 | 57 | 226 | 1.0 | 4.0 | 0.00 | 0.00 | 0.00 | 32 | 975.3 |
| 20260508173948 | 57 | 114 | 1.0 | 4.0 | 0.00 | 0.00 | 0.00 | 32 | 975.5 |
| 20260508173448 | 57 | 84 | 1.0 | 5.0 | 0.00 | 0.00 | 0.00 | 32 | 975.5 |
| 20260508172948 | 58 | 164 | 2.0 | 5.0 | 0.00 | 0.00 | 0.00 | 31 | 975.4 |
| 20260508172448 | 58 | 72 | 1.0 | 4.0 | 0.00 | 0.00 | 0.00 | 30 | 975.4 |
| 20260508171948 | 58 | 206 | 1.0 | 6.0 | 0.00 | 0.00 | 0.00 | 30 | 975.3 |
| 20260508171448 | 58 | 27 | 2.0 | 6.0 | 0.00 | 0.00 | 0.00 | 29 | 975.3 |
| 20260508170948 | 58 | 188 | 2.0 | 6.0 | 0.00 | 0.00 | 0.00 | 30 | 975.4 |
| 20260508170448 | 58 | 72 | 2.0 | 6.0 | 0.00 | 0.00 | 0.00 | 28 | 975.4 |
| 20260508165918 | 59 | 103 | 1.0 | 4.0 | 0.00 | 0.00 | 0.00 | 30 | 975.4 |
| 20260508165418 | 59 | 192 | 2.0 | 7.0 | 0.00 | 0.00 | 0.00 | 30 | 975.4 |
| 20260508164918 | 59 | 259 | 2.0 | 7.0 | 0.00 | 0.00 | 0.00 | 29 | 975.4 |
| 20260508164417 | 59 | 200 | 2.0 | 4.0 | 0.00 | 0.00 | 0.00 | 28 | 975.6 |
| 20260508163847 | 60 | 244 | 2.0 | 4.0 | 0.00 | 0.00 | 0.00 | 30 | 975.6 |
| 20260508163317 | 59 | 160 | 2.0 | 4.0 | 0.00 | 0.00 | 0.00 | 29 | 975.6 |
| 20260508162817 | 59 | 173 | 2.0 | 8.0 | 0.00 | 0.00 | 0.00 | 28 | 975.6 |
| 20260508162317 | 59 | 289 | 2.0 | 8.0 | 0.00 | 0.00 | 0.00 | 29 | 975.6 |
| 20260508161817 | 59 | 117 | 2.0 | 6.0 | 0.00 | 0.00 | 0.00 | 29 | 975.5 |
| 20260508161317 | 60 | 157 | 2.0 | 6.0 | 0.00 | 0.00 | 0.00 | 28 | 975.5 |
| 20260508160747 | 60 | 139 | 2.0 | 6.0 | 0.00 | 0.00 | 0.00 | 29 | 975.6 |
| 20260508160247 | 60 | 97 | 3.0 | 7.0 | 0.00 | 0.00 | 0.00 | 29 | 975.6 |
| 20260508155717 | 60 | 219 | 3.0 | 10.0 | 0.00 | 0.00 | 0.00 | 28 | 975.6 |
| 20260508155217 | 60 | 330 | 3.0 | 13.0 | 0.00 | 0.00 | 0.00 | 28 | 975.6 |
| 20260508154717 | 60 | 218 | 4.0 | 17.0 | 0.00 | 0.00 | 0.00 | 29 | 975.5 |
| 20260508154217 | 60 | 156 | 4.0 | 17.0 | 0.00 | 0.00 | 0.00 | 28 | 975.5 |
| 20260508153717 | 59 | 71 | 4.0 | 17.0 | 0.00 | 0.00 | 0.00 | 26 | 975.5 |
| 20260508153217 | 60 | 232 | 4.0 | 16.0 | 0.00 | 0.00 | 0.00 | 28 | 975.6 |
| 20260508152717 | 60 | 221 | 3.0 | 16.0 | 0.00 | 0.00 | 0.00 | 28 | 975.6 |
| 20260508152217 | 60 | 192 | 3.0 | 9.0 | 0.00 | 0.00 | 0.00 | 29 | 976.0 |
| 20260508151717 | 60 | 202 | 3.0 | 8.0 | 0.00 | 0.00 | 0.00 | 28 | 976.0 |
| 20260508151217 | 60 | 214 | 3.0 | 8.0 | 0.00 | 0.00 | 0.00 | 29 | 975.6 |
| 20260508150647 | 60 | 205 | 2.0 | 7.0 | 0.00 | 0.00 | 0.00 | 30 | 976.0 |
| 20260508150117 | 59 | 134 | 3.0 | 13.0 | 0.00 | 0.00 | 0.00 | 28 | 976.0 |
| 20260508145617 | 58 | 237 | 4.0 | 13.0 | 0.00 | 0.00 | 0.00 | 30 | 976.0 |
| 20260508145117 | 59 | 337 | 4.0 | 13.0 | 0.00 | 0.00 | 0.00 | 31 | 976.0 |
| 20260508144617 | 58 | 207 | 6.0 | 17.0 | 0.00 | 0.00 | 0.00 | 31 | 976.0 |
| 20260508144047 | 58 | 50 | 7.0 | 17.0 | 0.00 | 0.00 | 0.00 | 30 | 976.0 |
| 20260508143547 | 58 | 86 | 5.0 | 16.0 | 0.00 | 0.00 | 0.00 | 30 | 976.0 |
| 20260508143047 | 58 | 231 | 4.0 | 16.0 | 0.00 | 0.00 | 0.00 | 30 | 976.0 |
| 20260508142517 | 58 | 178 | 6.0 | 16.0 | 0.00 | 0.00 | 0.00 | 31 | 976.0 |
| 20260508142017 | 57 | 66 | 6.0 | 16.0 | 0.00 | 0.00 | 0.00 | 30 | 976.0 |
| 20260508141517 | 58 | 45 | 4.0 | 12.0 | 0.00 | 0.00 | 0.00 | 30 | 976.0 |
| 20260508141017 | 59 | 261 | 3.0 | 9.0 | 0.00 | 0.00 | 0.00 | 31 | 976.1 |
| 20260508140517 | 59 | 142 | 4.0 | 10.0 | 0.00 | 0.00 | 0.00 | 32 | 976.1 |
| 20260508140016 | 58 | 128 | 5.0 | 12.0 | 0.00 | 0.00 | 0.00 | 30 | 976.3 |
| 20260508135516 | 58 | 50 | 5.0 | 13.0 | 0.00 | 0.00 | 0.00 | 30 | 976.3 |
| 20260508134946 | 58 | 18 | 8.0 | 17.0 | 0.00 | 0.00 | 0.00 | 30 | 976.2 |
| 20260508134446 | 57 | 51 | 8.0 | 17.0 | 0.00 | 0.00 | 0.00 | 31 | 976.2 |
| 20260508133946 | 57 | 62 | 8.0 | 17.0 | 0.00 | 0.00 | 0.00 | 29 | 976.4 |
| 20260508133446 | 56 | 17 | 7.0 | 17.0 | 0.00 | 0.00 | 0.00 | 29 | 976.5 |
| 20260508132916 | 57 | 62 | 7.0 | 17.0 | 0.00 | 0.00 | 0.00 | 30 | 976.6 |
| 20260508132416 | 58 | 129 | 7.0 | 17.0 | 0.00 | 0.00 | 0.00 | 30 | 977.0 |
| 20260508131846 | 57 | 54 | 6.0 | 15.0 | 0.00 | 0.00 | 0.00 | 31 | 977.0 |
| 20260508131346 | 57 | 65 | 5.0 | 15.0 | 0.00 | 0.00 | 0.00 | 28 | 977.0 |
| 20260508130846 | 58 | 120 | 3.0 | 9.0 | 0.00 | 0.00 | 0.00 | 28 | 977.0 |
| 20260508130346 | 58 | 229 | 3.0 | 13.0 | 0.00 | 0.00 | 0.00 | 30 | 977.0 |
| 20260508125846 | 58 | 131 | 4.0 | 13.0 | 0.00 | 0.00 | 0.00 | 30 | 977.0 |
| 20260508125316 | 57 | 275 | 5.0 | 13.0 | 0.00 | 0.00 | 0.00 | 29 | 977.0 |
| 20260508124816 | 58 | 143 | 5.0 | 11.0 | 0.00 | 0.00 | 0.00 | 30 | 977.0 |
| 20260508124316 | 58 | 154 | 6.0 | 19.0 | 0.00 | 0.00 | 0.00 | 30 | 977.0 |
| 20260508123816 | 57 | 206 | 7.0 | 19.0 | 0.00 | 0.00 | 0.00 | 27 | 977.0 |
| 20260508123316 | 58 | 66 | 5.0 | 20.0 | 0.00 | 0.00 | 0.00 | 26 | 977.0 |
| 20260508122816 | 58 | 281 | 5.0 | 20.0 | 0.00 | 0.00 | 0.00 | 26 | 977.0 |
| 20260508122316 | 59 | 237 | 4.0 | 12.0 | 0.00 | 0.00 | 0.00 | 28 | 977.0 |
| 20260508121816 | 58 | 96 | 5.0 | 15.0 | 0.00 | 0.00 | 0.00 | 29 | 977.0 |
| 20260508121316 | 58 | 183 | 6.0 | 17.0 | 0.00 | 0.00 | 0.00 | 29 | 977.0 |
| 20260508120816 | 57 | 246 | 8.0 | 21.0 | 0.00 | 0.00 | 0.00 | 29 | 977.0 |
| 20260508120246 | 56 | 117 | 9.0 | 21.0 | 0.00 | 0.00 | 0.00 | 33 | 977.0 |
| 20260508115746 | 57 | 62 | 8.0 | 20.0 | 0.00 | 0.00 | 0.00 | 32 | 977.0 |
| 20260508115246 | 56 | 29 | 8.0 | 19.0 | 0.00 | 0.00 | 0.00 | 32 | 977.0 |
| 20260508114746 | 55 | 42 | 8.0 | 19.0 | 0.00 | 0.00 | 0.00 | 32 | 977.0 |
| 20260508114216 | 56 | 57 | 5.0 | 18.0 | 0.00 | 0.00 | 0.00 | 31 | 977.0 |
| 20260508113716 | 58 | 72 | 6.0 | 17.0 | 0.00 | 0.00 | 0.00 | 32 | 977.0 |
| 20260508113216 | 57 | 185 | 6.0 | 17.0 | 0.00 | 0.00 | 0.00 | 33 | 977.0 |
| 20260508112716 | 57 | 25 | 6.0 | 17.0 | 0.00 | 0.00 | 0.00 | 30 | 977.0 |
| 20260508112216 | 58 | 56 | 6.0 | 18.0 | 0.00 | 0.00 | 0.00 | 30 | 977.0 |
| 20260508111716 | 58 | 9 | 6.0 | 18.0 | 0.00 | 0.00 | 0.00 | 30 | 977.0 |
| 20260508111146 | 57 | 60 | 6.0 | 18.0 | 0.00 | 0.00 | 0.00 | 30 | 977.0 |
| 20260508110646 | 58 | 122 | 5.0 | 14.0 | 0.00 | 0.00 | 0.00 | 30 | 977.0 |
| 20260508110146 | 57 | 35 | 6.0 | 18.0 | 0.00 | 0.00 | 0.00 | 28 | 977.1 |
| 20260508105646 | 57 | 215 | 7.0 | 18.0 | 0.00 | 0.00 | 0.00 | 33 | 977.0 |
| 20260508105146 | 57 | 61 | 7.0 | 21.0 | 0.00 | 0.00 | 0.00 | 29 | 977.0 |
| 20260508104646 | 58 | 86 | 8.0 | 21.0 | 0.00 | 0.00 | 0.00 | 31 | 977.0 |
| 20260508104146 | 56 | 108 | 9.0 | 21.0 | 0.00 | 0.00 | 0.00 | 31 | 977.1 |
| 20260508103646 | 56 | 74 | 8.0 | 18.0 | 0.00 | 0.00 | 0.00 | 31 | 977.0 |
| 20260508103116 | 56 | 49 | 6.0 | 18.0 | 0.00 | 0.00 | 0.00 | 33 | 977.1 |
| 20260508102616 | 57 | 66 | 5.0 | 17.0 | 0.00 | 0.00 | 0.00 | 27 | 977.0 |
| 20260508102116 | 58 | 275 | 5.0 | 15.0 | 0.00 | 0.00 | 0.00 | 29 | 977.0 |
| 20260508101546 | 57 | 73 | 4.0 | 15.0 | 0.00 | 0.00 | 0.00 | 28 | 977.1 |
| 20260508101016 | 58 | 194 | 4.0 | 12.0 | 0.00 | 0.00 | 0.00 | 31 | 977.0 |
| 20260508100516 | 56 | 48 | 6.0 | 15.0 | 0.00 | 0.00 | 0.00 | 32 | 977.1 |
| 20260508100016 | 56 | 216 | 8.0 | 16.0 | 0.00 | 0.00 | 0.00 | 33 | 977.1 |
| 20260508095446 | 55 | 59 | 9.0 | 17.0 | 0.00 | 0.00 | 0.00 | 31 | 977.1 |
| 20260508094946 | 55 | 60 | 9.0 | 17.0 | 0.00 | 0.00 | 0.00 | 32 | 977.2 |
| 20260508094416 | 55 | 65 | 7.0 | 16.0 | 0.00 | 0.00 | 0.00 | 31 | 977.3 |
| 20260508093916 | 56 | 92 | 5.0 | 14.0 | 0.00 | 0.00 | 0.00 | 33 | 977.4 |
| 20260508093346 | 58 | 163 | 5.0 | 17.0 | 0.00 | 0.00 | 0.00 | 33 | 977.4 |
| 20260508092846 | 56 | 56 | 5.0 | 17.0 | 0.00 | 0.00 | 0.00 | 35 | 977.3 |
| 20260508092346 | 57 | 312 | 5.0 | 14.0 | 0.00 | 0.00 | 0.00 | 37 | 977.5 |
| 20260508091845 | 56 | 171 | 7.0 | 16.0 | 0.00 | 0.00 | 0.00 | 39 | 977.5 |
| 20260508091345 | 55 | 56 | 6.0 | 16.0 | 0.00 | 0.00 | 0.00 | 36 | 977.5 |
| 20260508090845 | 55 | 98 | 6.0 | 16.0 | 0.00 | 0.00 | 0.00 | 37 | 977.5 |
| 20260508090345 | 56 | 117 | 6.0 | 15.0 | 0.00 | 0.00 | 0.00 | 37 | 977.5 |
| 20260508085845 | 54 | 55 | 7.0 | 17.0 | 0.00 | 0.00 | 0.00 | 38 | 977.5 |
| 20260508085345 | 55 | 156 | 6.0 | 20.0 | 0.00 | 0.00 | 0.00 | 40 | 977.5 |
| 20260508084845 | 55 | 44 | 4.0 | 20.0 | 0.00 | 0.00 | 0.00 | 37 | 977.5 |
| 20260508084345 | 55 | 182 | 5.0 | 13.0 | 0.00 | 0.00 | 0.00 | 42 | 977.9 |
| 20260508083815 | 54 | 57 | 7.0 | 14.0 | 0.00 | 0.00 | 0.00 | 43 | 977.8 |
| 20260508083315 | 52 | 72 | 7.0 | 14.0 | 0.00 | 0.00 | 0.00 | 45 | 977.4 |
| 20260508082746 | 52 | 67 | 7.0 | 15.0 | 0.00 | 0.00 | 0.00 | 47 | 977.5 |
| 20260508082246 | 51 | 236 | 8.0 | 15.0 | 0.00 | 0.00 | 0.00 | 47 | 977.8 |
| 20260508081745 | 50 | 79 | 8.0 | 14.0 | 0.00 | 0.00 | 0.00 | 49 | 977.8 |
| 20260508081245 | 51 | 74 | 8.0 | 14.0 | 0.00 | 0.00 | 0.00 | 50 | 977.8 |
| 20260508080745 | 50 | 59 | 8.0 | 15.0 | 0.00 | 0.00 | 0.00 | 48 | 977.5 |
| 20260508080245 | 50 | 63 | 8.0 | 15.0 | 0.00 | 0.00 | 0.00 | 50 | 977.8 |
| 20260508075745 | 49 | 38 | 8.0 | 15.0 | 0.00 | 0.00 | 0.00 | 50 | 977.6 |
| 20260508075215 | 49 | 13 | 7.0 | 15.0 | 0.00 | 0.00 | 0.00 | 53 | 978.1 |
| 20260508074715 | 48 | 66 | 7.0 | 14.0 | 0.00 | 0.00 | 0.00 | 56 | 978.0 |
| 20260508074215 | 46 | 42 | 6.0 | 11.0 | 0.00 | 0.00 | 0.00 | 57 | 978.1 |
| 20260508073645 | 45 | 47 | 7.0 | 11.0 | 0.00 | 0.00 | 0.00 | 57 | 978.0 |
| 20260508073145 | 45 | 70 | 7.0 | 13.0 | 0.00 | 0.00 | 0.00 | 57 | 978.0 |
| 20260508072645 | 45 | 31 | 8.0 | 15.0 | 0.00 | 0.00 | 0.00 | 55 | 977.6 |
| 20260508072145 | 46 | 47 | 9.0 | 15.0 | 0.00 | 0.00 | 0.00 | 54 | 978.0 |
| 20260508071645 | 48 | 51 | 8.0 | 16.0 | 0.00 | 0.00 | 0.00 | 53 | 978.0 |
| 20260508071115 | 48 | 26 | 8.0 | 16.0 | 0.00 | 0.00 | 0.00 | 53 | 978.0 |
| 20260508070615 | 48 | 44 | 8.0 | 16.0 | 0.00 | 0.00 | 0.00 | 53 | 978.0 |
| 20260508070045 | 48 | 42 | 7.0 | 16.0 | 0.00 | 0.00 | 0.00 | 51 | 977.5 |
| 20260508065515 | 48 | 70 | 6.0 | 13.0 | 0.00 | 0.00 | 0.00 | 50 | 978.0 |
| 20260508065015 | 49 | 22 | 6.0 | 13.0 | 0.00 | 0.00 | 0.00 | 51 | 978.1 |
| 20260508064445 | 47 | 33 | 7.0 | 14.0 | 0.00 | 0.00 | 0.00 | 53 | 978.0 |
| 20260508063945 | 47 | 68 | 7.0 | 16.0 | 0.00 | 0.00 | 0.00 | 52 | 977.6 |
| 20260508063445 | 46 | 51 | 8.0 | 16.0 | 0.00 | 0.00 | 0.00 | 54 | 978.0 |
| 20260508062945 | 47 | 19 | 7.0 | 14.0 | 0.00 | 0.00 | 0.00 | 51 | 978.0 |
| 20260508062415 | 46 | 43 | 7.0 | 14.0 | 0.00 | 0.00 | 0.00 | 52 | 978.0 |
| 20260508061915 | 46 | 56 | 7.0 | 14.0 | 0.00 | 0.00 | 0.00 | 51 | 978.0 |
| 20260508061345 | 46 | 51 | 7.0 | 13.0 | 0.00 | 0.00 | 0.00 | 53 | 978.0 |
| 20260508060815 | 44 | 7 | 8.0 | 16.0 | 0.00 | 0.00 | 0.00 | 53 | 978.0 |
| 20260508060315 | 44 | 19 | 8.0 | 16.0 | 0.00 | 0.00 | 0.00 | 55 | 978.0 |
| 20260508055815 | 44 | 30 | 7.0 | 16.0 | 0.00 | 0.00 | 0.00 | 53 | 978.0 |
| 20260508055315 | 44 | 0 | 7.0 | 13.0 | 0.00 | 0.00 | 0.00 | 56 | 978.0 |
| 20260508054745 | 43 | 20 | 7.0 | 13.0 | 0.00 | 0.00 | 0.00 | 55 | 978.0 |
| 20260508054245 | 43 | 21 | 7.0 | 14.0 | 0.00 | 0.00 | 0.00 | 54 | 978.0 |
| 20260508053745 | 42 | 9 | 8.0 | 14.0 | 0.00 | 0.00 | 0.00 | 58 | 978.0 |
| 20260508053245 | 43 | 18 | 7.0 | 14.0 | 0.00 | 0.00 | 0.00 | 56 | 978.0 |
| 20260508052745 | 42 | 16 | 6.0 | 12.0 | 0.00 | 0.00 | 0.00 | 56 | 978.0 |
| 20260508052245 | 43 | 21 | 6.0 | 11.0 | 0.00 | 0.00 | 0.00 | 56 | 978.0 |
| 20260508051715 | 42 | 13 | 5.0 | 11.0 | 0.00 | 0.00 | 0.00 | 56 | 978.0 |
| 20260508051145 | 43 | 16 | 5.0 | 9.0 | 0.00 | 0.00 | 0.00 | 55 | 977.6 |
| 20260508050645 | 43 | 20 | 4.0 | 9.0 | 0.00 | 0.00 | 0.00 | 54 | 977.5 |
| 20260508050145 | 45 | 29 | 4.0 | 9.0 | 0.00 | 0.00 | 0.00 | 48 | 977.6 |
| 20260508045615 | 47 | 14 | 2.0 | 7.0 | 0.00 | 0.00 | 0.00 | 47 | 977.6 |
| 20260508045115 | 51 | 337 | 1.0 | 5.0 | 0.00 | 0.00 | 0.00 | 44 | 978.0 |
| 20260508044615 | 52 | 174 | 1.0 | 3.0 | 0.00 | 0.00 | 0.00 | 47 | 978.1 |
| 20260508044045 | 49 | 163 | 1.0 | 4.0 | 0.00 | 0.00 | 0.00 | 50 | 978.0 |
| 20260508043545 | 47 | 128 | 2.0 | 4.0 | 0.00 | 0.00 | 0.00 | 54 | 978.0 |
| 20260508043045 | 44 | 251 | 2.0 | 4.0 | 0.00 | 0.00 | 0.00 | 55 | 978.0 |
| 20260508042545 | 44 | 246 | 2.0 | 4.0 | 0.00 | 0.00 | 0.00 | 56 | 978.0 |
| 20260508042015 | 43 | 243 | 2.0 | 5.0 | 0.00 | 0.00 | 0.00 | 56 | 978.0 |
| 20260508041515 | 43 | 257 | 2.0 | 5.0 | 0.00 | 0.00 | 0.00 | 56 | 978.0 |
| 20260508040945 | 43 | 247 | 2.0 | 4.0 | 0.00 | 0.00 | 0.00 | 56 | 978.0 |
| 20260508040445 | 43 | 276 | 2.0 | 4.0 | 0.00 | 0.00 | 0.00 | 55 | 978.0 |
| 20260508035945 | 43 | 293 | 2.0 | 4.0 | 0.00 | 0.00 | 0.00 | 54 | 977.5 |
| 20260508035445 | 43 | 307 | 2.0 | 4.0 | 0.00 | 0.00 | 0.00 | 53 | 977.6 |
| 20260508034945 | 42 | 294 | 2.0 | 4.0 | 0.00 | 0.00 | 0.00 | 54 | 977.6 |
| 20260508034445 | 43 | 282 | 1.0 | 4.0 | 0.00 | 0.00 | 0.00 | 54 | 977.5 |
| 20260508033945 | 44 | 305 | 1.0 | 4.0 | 0.00 | 0.00 | 0.00 | 55 | 978.0 |
| 20260508033445 | 42 | 297 | 1.0 | 4.0 | 0.00 | 0.00 | 0.00 | 61 | 977.5 |
| 20260508032915 | 39 | 292 | 2.0 | 4.0 | 0.00 | 0.00 | 0.00 | 62 | 977.4 |
| 20260508032415 | 39 | 288 | 1.0 | 3.0 | 0.00 | 0.00 | 0.00 | 64 | 977.4 |
| 20260508031914 | 39 | 294 | 1.0 | 2.0 | 0.00 | 0.00 | 0.00 | 65 | 977.4 |
| 20260508031414 | 38 | 284 | 1.0 | 3.0 | 0.00 | 0.00 | 0.00 | 68 | 977.4 |
| 20260508030914 | 37 | 136 | 2.0 | 3.0 | 0.00 | 0.00 | 0.00 | 72 | 977.4 |
| 20260508030414 | 35 | 258 | 3.0 | 4.0 | 0.00 | 0.00 | 0.00 | 76 | 977.5 |
| 20260508025844 | 33 | 246 | 3.0 | 4.0 | 0.00 | 0.00 | 0.00 | 80 | 977.3 |
| 20260508025344 | 32 | 255 | 3.0 | 4.0 | 0.00 | 0.00 | 0.00 | 84 | 977.3 |
| 20260508024844 | 31 | 248 | 3.0 | 4.0 | 0.00 | 0.00 | 0.00 | 87 | 977.2 |
| 20260508024344 | 31 | 240 | 3.0 | 4.0 | 0.00 | 0.00 | 0.00 | 86 | 977.2 |
| 20260508023844 | 30 | 250 | 3.0 | 4.0 | 0.00 | 0.00 | 0.00 | 87 | 977.2 |
| 20260508023314 | 30 | 270 | 3.0 | 4.0 | 0.00 | 0.00 | 0.00 | 86 | 977.3 |
| 20260508022814 | 30 | 263 | 2.0 | 4.0 | 0.00 | 0.00 | 0.00 | 85 | 977.3 |
| 20260508022314 | 31 | 274 | 2.0 | 4.0 | 0.00 | 0.00 | 0.00 | 83 | 977.3 |
| 20260508021744 | 31 | 312 | 2.0 | 4.0 | 0.00 | 0.00 | 0.00 | 81 | 977.3 |
| 20260508021214 | 32 | 352 | 1.0 | 4.0 | 0.00 | 0.00 | 0.00 | 81 | 977.2 |
| 20260508020714 | 33 | 8 | 1.0 | 4.0 | 0.00 | 0.00 | 0.00 | 80 | 977.2 |
| 20260508020144 | 33 | 186 | 0.0 | 2.0 | 0.00 | 0.00 | 0.00 | 82 | 977.4 |
| 20260508015644 | 33 | 151 | 0.0 | 2.0 | 0.00 | 0.00 | 0.00 | 81 | 977.3 |
| 20260508015144 | 33 | 135 | 0.0 | 2.0 | 0.00 | 0.00 | 0.00 | 80 | 977.3 |
| 20260508014614 | 33 | 189 | 0.0 | 2.0 | 0.00 | 0.00 | 0.00 | 78 | 977.2 |
| 20260508014114 | 33 | 179 | 0.0 | 2.0 | 0.00 | 0.00 | 0.00 | 79 | 977.2 |
| 20260508013614 | 32 | 204 | 0.0 | 2.0 | 0.00 | 0.00 | 0.00 | 76 | 977.2 |
| 20260508013044 | 32 | 272 | 1.0 | 3.0 | 0.00 | 0.00 | 0.00 | 75 | 977.1 |
| 20260508012544 | 32 | 243 | 1.0 | 3.0 | 0.00 | 0.00 | 0.00 | 76 | 977.1 |
| 20260508012014 | 33 | 240 | 1.0 | 2.0 | 0.00 | 0.00 | 0.00 | 76 | 977.0 |
| 20260508011514 | 33 | 230 | 1.0 | 2.0 | 0.00 | 0.00 | 0.00 | 75 | 977.2 |
| 20260508011014 | 33 | 278 | 1.0 | 2.0 | 0.00 | 0.00 | 0.00 | 75 | 977.1 |
| 20260508010514 | 33 | 251 | 0.0 | 1.0 | 0.00 | 0.00 | 0.00 | 74 | 977.1 |
| 20260508010014 | 33 | 267 | 0.0 | 1.0 | 0.00 | 0.00 | 0.00 | 73 | 977.2 |
| 20260508005514 | 34 | 26 | 0.0 | 2.0 | 0.00 | 0.00 | 0.00 | 73 | 977.1 |
| 20260508005014 | 34 | 276 | 1.0 | 3.0 | 0.00 | 0.00 | 0.00 | 71 | 977.2 |
| 20260508004514 | 34 | 345 | 1.0 | 3.0 | 0.00 | 0.00 | 0.00 | 71 | 977.1 |
| 20260508004014 | 34 | 46 | 1.0 | 4.0 | 0.00 | 0.00 | 0.00 | 71 | 977.1 |
| 20260508003514 | 34 | 66 | 1.0 | 4.0 | 0.00 | 0.00 | 0.00 | 72 | 977.0 |
| 20260508003014 | 33 | 38 | 0.0 | 2.0 | 0.00 | 0.00 | 0.00 | 73 | 977.0 |
| 20260508002514 | 33 | 259 | 0.0 | 1.0 | 0.00 | 0.00 | 0.00 | 73 | 977.0 |
| 20260508002013 | 33 | 270 | 1.0 | 2.0 | 0.00 | 0.00 | 0.00 | 73 | 977.0 |
| 20260508001443 | 33 | 274 | 1.0 | 2.0 | 0.00 | 0.00 | 0.00 | 72 | 977.0 |
| 20260508000943 | 34 | 331 | 1.0 | 2.0 | 0.00 | 0.00 | 0.00 | 71 | 977.0 |
| 20260508000414 | 34 | 283 | 1.0 | 1.0 | 0.00 | 0.00 | 0.00 | 71 | 977.0 |
| 20260507235913 | 34 | 235 | 0.0 | 1.0 | 0.00 | 0.00 | 0.00 | 71 | 977.0 |
| 20260507235413 | 35 | 252 | 0.0 | 2.0 | 0.00 | 0.00 | 0.00 | 71 | 977.0 |
| 20260507234913 | 35 | 267 | 1.0 | 2.0 | 0.00 | 0.00 | 0.00 | 70 | 977.0 |
| 20260507234343 | 35 | 210 | 1.0 | 1.0 | 0.00 | 0.00 | 0.00 | 71 | 977.0 |
| 20260507233843 | 34 | 237 | 1.0 | 2.0 | 0.00 | 0.00 | 0.00 | 71 | 977.0 |
| 20260507233313 | 34 | 283 | 1.0 | 2.0 | 0.00 | 0.00 | 0.00 | 71 | 976.6 |
| 20260507232813 | 34 | 262 | 2.0 | 2.0 | 0.00 | 0.00 | 0.00 | 71 | 976.5 |
| 20260507232313 | 34 | 268 | 2.0 | 2.0 | 0.00 | 0.00 | 0.00 | 71 | 976.4 |